Location: Ayer Observatory
(42.2600°N, 71.0700°W)
Time: 23:27:24
(UTC-04:00)

XW-2A - Pass Details

Date: 10 August 2020
Orbit: 428 x 443 km, 97.3° (Epoch: 26 September)

Event Time Altitude Azimuth Distance (km) Brightness Sun altitude
Exits shadow 20:40:40 11° 139° (SE) 1,441 ? -9.0°
Maximum altitude 20:43:28 36° 73° (ENE) 706 ? -9.5°
Drops below altitude 10° 20:46:30 10° 5° (N) 1,534 ? -10.0°
Sets 20:48:36 0° 357° (N) 2,406 ? -10.3°
